Regional Weather Roundup
Issued by NWS San Angelo, TX

Home | Current Version | Previous Version | Text Only | Print | Product List | Glossary On
Versions: 1 2 3 4 5 6 7 8 9 10 11 12 13 14 15 16 17 18 19 20 21 22 23 24 25 26 27 28 29 30 31 32 33 34 35 36 37 38 39 40 41 42 43 44 45 46 47 48 49 50
000
ASUS44 KSJT 211410
RWRSJT
WEST CENTRAL TEXAS REGIONAL WEATHER ROUNDUP
NATIONAL WEATHER SERVICE SAN ANGELO TX
800 AM CST SUN DEC 21 2014

NOTE: "FAIR" INDICATES FEW OR NO CLOUDS BELOW 12,000 FEET WITH NO
SIGNIFICANT WEATHER AND/OR OBSTRUCTIONS TO VISIBILITY.

TXZ049-054-064>066-071>073-076>078-098-099-113-114-127-128-139-140-
154-155-168>170-211500
...LOCATIONS ACROSS WEST CENTRAL TEXAS...

CITY           SKY/WX    TMP DP  RH WIND       PRES   REMARKS
SAN ANGELO     CLOUDY    49  44  83 S12       30.02F
ABILENE        CLOUDY    48  44  86 S10       30.01S
DYESS AFB      MOCLDY    46  41  81 S10       29.99F
JUNCTION       CLOUDY    47  44  90 S8        30.06S
SWEETWATER     CLOUDY    49  44  81 S12       30.02R
BROWNWOOD      CLOUDY    46  43  87 S7        30.06S
COLEMAN        CLOUDY    46  45  95 S9        30.04F
SONORA         FOG       46  46 100 S7        30.09F VSB 1
OZONA          CLOUDY    45  45 100 S8        30.07F FOG
BRADY          CLOUDY    46  43  87 S8        30.04S
$$

TEXAS PANHANDLE/OKLAHOMA PANHANDLE

CITY           SKY/WX    TMP DP  RH WIND       PRES   REMARKS
AMARILLO       CLEAR     29  28  96 S8        29.85S WCI  21
BORGER         CLEAR     37  34  89 SW7       29.85S FOG     WCI  32
CANADIAN       CLOUDY    42  41  97 S9        29.87F FOG     WCI  36
DALHART        PTCLDY    23  18  81 SW3       29.84R
DUMAS          MOSUNNY   22  20  94 SW7       29.82S FOG     WCI  13
GUYMON         NOT AVBL
HEREFORD       MOSUNNY   28  24  84 W8        29.86R WCI  20
PAMPA          CLOUDY    39  37  92 S15       29.84F FOG     WCI  30
PERRYTON       CLOUDY    40  38  93 S10       29.85S WCI  34
$$

SOUTHERN PANHANDLE/SOUTH PLAINS/ROLLING PLAINS

CITY           SKY/WX    TMP DP  RH WIND       PRES   REMARKS
LUBBOCK        PTCLDY    36  35  96 SW9       29.90F FOG     WCI  29
SNYDER         MOCLDY    46  42  86 S10       29.98F
CHILDRESS      CLOUDY    43  40  89 SE14      29.92F WCI  36
SEMINOLE       FOG       38  38 100 SW5       29.98S VSB 3/4 WCI  34
$$

PERMIAN BASIN

CITY           SKY/WX    TMP DP  RH WIND       PRES   REMARKS
MIDLAND        FOG       41  40  96 SW9       29.98S VSB 1/4 WCI  35
ODESSA         FOG       42  40  92 SW13      29.99R VSB 3/4 WCI  35
WINK           FOG       34  31  88 N3        29.99S VSB 1/4
$$

FAR WEST/SOUTHWEST MOUNTAINS/TRANS PECOS

CITY           SKY/WX    TMP DP  RH WIND       PRES   REMARKS
ALPINE         PTSUNNY   44  26  47 SW14      30.10R WCI  38
DRYDEN           N/A     49  48  97 SE5       30.03S
EL PASO        MOCLDY    34  26  72 CALM      30.06R
FORT STOCKTON  PTCLDY    41  29  62 SW10      30.00S WCI  35
GUADALUPE PASS NOT AVBL
MARFA          MOCLDY    27  21  80 W3        30.08R
PECOS          PTSUNNY   31  24  77 S6        30.01R WCI  25
$$

DALLAS/FORT WORTH METROPLEX

CITY           SKY/WX    TMP DP  RH WIND       PRES   REMARKS
DFW AIRPORT    CLOUDY    47  43  86 SE9       30.08F
FTW MEACHAM    CLOUDY    48  44  86 SE10      30.08F FOG
DAL-EXECUTIVE  CLOUDY    48  43  82 SE8       30.10S
GRAND PRAIRIE  MOCLDY    46  45  93 CALM      30.11
ADDISON        CLOUDY    48  43  81 SE9       30.10F
MESQUITE       CLOUDY    46  45  93 E6        30.12S FOG
LANCASTER      CLOUDY    46  42  88 SE3       30.12F
$$

NORTH CENTRAL TEXAS

CITY           SKY/WX    TMP DP  RH WIND       PRES   REMARKS
SHRMAN/DENISON CLOUDY    46  46  97 CALM      30.10F FOG
GAINESVILLE    CLOUDY    46  43  90 S10       30.10F FOG
BRIDGEPORT     CLOUDY    47  47  97 S10       30.09F
DENTON         CLOUDY    47  43  86 S10       30.08F
WAXAHACHIE     CLOUDY    46  46 100 SE3       30.12S FOG
GRANBURY       CLOUDY    49  46  88 SE5       30.10S FOG
$$

WESTERN NORTH TEXAS

CITY           SKY/WX    TMP DP  RH WIND       PRES   REMARKS
WICHITA FALLS  CLOUDY    46  42  86 S14       30.01F FOG     WCI  40
VERNON         CLOUDY    46  40  78 S13       29.99S
BRECKENRIDGE   CLOUDY    48  43  81 SE13      30.02F
COMANCHE       CLOUDY    47  45  93 S8        30.06F
$$

CENTRAL AND SOUTH CENTRAL TEXAS

CITY           SKY/WX    TMP DP  RH WIND       PRES   REMARKS
AUSTIN/BERGSTM CLOUDY    50  46  86 SE5       30.10F
WACO           CLOUDY    47  45  93 SE6       30.11S
HILLSBORO      CLOUDY    47  44  87 SE6       30.10F
TEMPLE         CLOUDY    46  43  87 SE6       30.10S
KILLEEN-GRAY   CLOUDY    48  45  87 SE7       30.08F
FORT HOOD      CLOUDY    48  46  95 SE6       30.09S
GEORGETOWN     CLOUDY    48  45  87 S3        30.09S
LAGO VISTA     CLOUDY    49  46  88 SE5       30.10S
SAN MARCOS     NOT AVBL
NEW BRAUNFELS  CLOUDY    51  47  86 SE7       30.09F FOG
RANDOLPH AFB   CLOUDY    50  48  93 SE6       30.09F FOG
SAN ANTONIO    DRIZZLE   52  49  89 S7        30.09F FOG
STINSON        LGT RAIN  51  49  92 S5        30.09R FOG
PLEASANTON     NOT AVBL
LA GRANGE      CLOUDY    52  50  92 SE3       30.10F
GIDDINGS       CLOUDY    49  47  91 CALM      30.15F
$$

EAST TEXAS

CITY           SKY/WX    TMP DP  RH WIND       PRES   REMARKS
PARIS          CLOUDY    45  39  81 SE9       30.15S WCI  40
CLARKSVILLE    NOT AVBL
TYLER          CLOUDY    45  42  89 E5        30.13F FOG
LONGVIEW       FOG       41  39  93 CALM      30.14F VSB<1/4
PALESTINE      CLOUDY    46  45  97 E5        30.14S
NACOGDOCHES    CLOUDY    41  37  87 CALM      30.15S
$$

TEXAS HILL COUNTRY AND EDWARDS PLATEAU

CITY           SKY/WX    TMP DP  RH WIND       PRES   REMARKS
LLANO          CLOUDY    48  46  93 CALM      30.11S
HORSESHOE BAY  CLOUDY    49  47  92 CALM      30.10R
KERRVILLE      CLOUDY    48  46  91 S8        30.08S
FREDERICKSBRG  CLOUDY    47  44  88 SW9       30.08R
ROCKSPRINGS    FOG       45  45 100 S6        30.07F VSB 1/4
HONDO          CLOUDY    50  46  86 SW5       30.12R
UVALDE         CLOUDY    47  45  93 CALM      30.11R
DEL RIO        CLOUDY    49  46  90 SE10      30.08R FOG
$$

SOUTHEAST TEXAS

CITY           SKY/WX    TMP DP  RH WIND       PRES   REMARKS
COLLEGE STN    CLOUDY    49  47  93 SE8       30.13S FOG
CALDWELL       CLOUDY    48  48 100 CALM      30.16R FOG
CROCKETT       CLOUDY    48  46  93 CALM      30.17S
BRENHAM        CLOUDY    51  49  95 E6        30.13F FOG
HUNTSVILLE     CLOUDY    48  46  93 CALM      30.12F FOG
CONROE         CLOUDY    48  44  86 E5        30.14F
HOUSTON BUSH   CLOUDY    49  45  86 NE6       30.14S
HOUSTON HOBBY  CLOUDY    50  47  89 N7        30.13S
PERLAND        CLOUDY    51  46  83 NE10      30.13F
WHARTON        CLOUDY    51  48  91 N5        30.13S
$$

THE UPPER TEXAS COAST

CITY           SKY/WX    TMP DP  RH WIND       PRES   REMARKS
ORANGE         CLOUDY    44  43  98 N3        30.16S FOG
PORT ARTHUR    CLOUDY    46  43  89 NE6       30.14R
GALVESTON      CLOUDY    51  50  96 N14       30.11F
ANGLETON       CLOUDY    50  49  96 N9        30.10F
BAY CITY         N/A     52  51  97 N3        30.12R
$$

TEXAS COASTAL BEND, RIO GRANDE PLAINS DEEP SOUTH TEXAS

CITY           SKY/WX    TMP DP  RH WIND       PRES   REMARKS
VICTORIA       CLOUDY    54  51  90 NE7       30.12R
BEEVILLE       CLOUDY    51  51 100 CALM      30.11R
ROCKPORT       CLOUDY    55  52  89 NE8       30.09F
PORT ARANSAS   CLOUDY    57  54  90 NE8       30.08F
PORT LAVACA    CLOUDY    53  51  92 NE10      30.11S
CORPUS CHRISTI CLOUDY    54  52  93 N7        30.09S FOG
KINGSVILLE NAS CLOUDY    55  53  93 NE6       30.09F
COTULLA        FOG       51  50  96 CALM      30.11S VSB 1
LAREDO         CLOUDY    52  50  93 CALM      30.13  FOG
BROWNSVILLE    CLOUDY    59  56  89 NW9       30.06S
PORT ISABEL    LGT RAIN  60  58  92 NW10      30.06S FOG
HEBBRONVILLE   HVY RAIN  52  50  94 CALM      30.11R
MCALLEN        CLOUDY    54  54 100 NW6       30.09F FOG
WESLACO        DRIZZLE   55  52  92 N6        30.08F
FALFURRIAS     CLOUDY    53  51  92 N3        30.09S
EDINBURG       CLOUDY    56  53  89 N6        30.09F FOG
$$



USA.gov is the U.S. government's official web portal to all federal, state and local government web resources and services.